2023-077F

Last updated on Sun Jun 04 2023 00:02:04 GMT+0000 (Coordinated Universal Time)

1 56766U 23077F 23154.67611803 .00894024 76027-5 53045-3 0 9990 2 56766 41.4731 236.0851 0089771 160.3880 327.7721 16.08640130 733

Satellite not in orbit